Flag for Guinea Weather past 2 weeks in Nzérékoré, Guinea

Now
75 °F

Light rain. Passing clouds.


Feels Like: 74 °F
Forecast: 70 / 82 °F
Wind: 3 mph from Southwest

Location: Roberts Field

Current Time: Sep 3, 2015 at 5:44:04 AM

Latest Report: Sep 3, 2015 at 4:00 AM


Visibility: 4 mi

Pressure: 29.92 "Hg

Humidity: 94%

Dew point: 73 °F

Location of NzérékoréLocation

Historic Weather in Nzérékoré — Graph

°F

Nzérékoré temperature yesterday

Maximum temperature yesterday: 81 °F (at 10:00 AM)
Minimum temperature yesterday: 75 °F (at 2:30 AM)
Average temperature yesterday: 77 °F

Past Weeks' High & Low Weather Summary

 TemperatureHumidityPressure
High84 °F (Aug 26, 12:30 PM)100% (Aug 25, 2:30 AM)30.07 "Hg (Aug 25, 2:30 AM)
Low72 °F (Aug 25, 6:30 AM)70% (Aug 31, 12:30 PM)29.86 "Hg (Aug 19, 4:00 AM)
Average78 °F90%29.94 "Hg
* Reported Aug 19 4:00 AM — Sep 3 4:00 AM, Nzérékoré, Weather by CustomWeather, © 2015

Note: Actual official high and low records may vary slightly from our data, if they occured in-between our weather recording intervals... More about our weather records

Advertising

Nzérékoré weather history for previous 24 hours

 ConditionsComfort  
Time TempWeatherWind HumidityBarometerVisibility
4:00 AM
Thu, Sep 3
75 °FLight rain. Passing clouds.3 mph94%29.92 "Hg4 mi
3:30 AM75 °FPassing clouds.12 mph94%29.92 "HgN/A
3:00 AM75 °FPassing clouds.No wind94%29.92 "HgN/A
2:30 AM75 °FPassing clouds.5 mph94%29.92 "HgN/A
2:00 AM75 °FPassing clouds.6 mph94%29.95 "HgN/A
1:30 AM75 °FPassing clouds.8 mph94%29.95 "HgN/A
1:00 AM75 °FPassing clouds.7 mph94%29.95 "HgN/A
12:30 AM75 °FPassing clouds.7 mph94%29.98 "HgN/A
12:00 AM75 °FPassing clouds.3 mph94%29.98 "HgN/A
11:30 PM
Wed, Sep 2
75 °FRain. Passing clouds.5 mph94%29.98 "HgN/A
11:00 PM77 °FRain. Partly cloudy.8 mph94%29.98 "Hg5 mi
10:00 PM77 °FPassing clouds.6 mph94%29.98 "HgN/A
9:30 PM77 °FPassing clouds.7 mph94%29.98 "HgN/A
9:00 PM77 °FPassing clouds.5 mph94%29.98 "HgN/A
8:30 PM77 °FLight rain. Passing clouds.3 mph94%29.95 "Hg6 mi
8:00 PM77 °FRain. Mostly cloudy.8 mph94%29.95 "Hg4 mi
5:30 PM77 °FRain. Mostly cloudy.10 mph94%29.89 "Hg2 mi
5:00 PM77 °FRain. Mostly cloudy.7 mph94%29.89 "Hg2 mi
3:30 PM81 °FPartly sunny.9 mph84%29.92 "HgN/A
3:00 PM81 °FPartly sunny.13 mph89%29.92 "HgN/A
12:00 PM77 °FRain. Broken clouds.No wind94%29.98 "Hg4 mi
11:30 AM77 °FRain. Broken clouds.5 mph94%30.01 "Hg4 mi
11:00 AM77 °FRain. Broken clouds.No wind94%30.01 "Hg3 mi
10:30 AM77 °FRain. Broken clouds.5 mph94%30.01 "Hg3 mi
10:00 AM81 °FPartly sunny.5 mph94%29.98 "HgN/A
9:30 AM79 °FPartly sunny.No wind89%29.98 "HgN/A
9:00 AM79 °FPartly sunny.No wind89%29.98 "HgN/A
8:30 AM79 °FPartly sunny.No wind89%29.98 "HgN/A
8:00 AM77 °FPartly sunny.No wind94%29.95 "HgN/A
7:30 AM77 °FPassing clouds.No wind94%29.95 "HgN/A
7:00 AM77 °FPassing clouds.No wind94%29.92 "HgN/A
6:30 AM77 °FPassing clouds.No wind94%29.92 "HgN/A
6:00 AM77 °FPassing clouds.5 mph94%29.92 "HgN/A
Weather by CustomWeather, © 2015

See weather overviewHow to use our weather pages